EW3286 Weather Reports


Display with metric or nautical units.
time (UTC)temp
F
wind
direction
speed
MPH
gust
MPH
rain 1hr
in
rain 24hr
in
rain mn
in
humidity
%
barometer
mb
20260904034533 75 87 0.0 0.0 0.00 0.00 0.00 90 1006.8
20260904033027 76 87 0.0 0.0 0.00 0.00 0.00 89 1006.8
20260904031526 76 87 0.0 0.0 0.00 0.00 0.00 87 1006.7
20260904030026 77 87 0.0 0.0 0.00 0.00 0.00 87 1006.6
20260904024526 78 87 0.0 0.0 0.00 0.00 0.00 86 1006.5
20260904023025 78 87 0.0 0.0 0.00 0.00 0.00 87 1006.4
20260904021531 78 84 0.0 0.0 0.00 0.00 0.00 87 1006.2
20260904020023 79 88 0.0 0.0 0.00 0.00 0.00 85 1006.1
20260904014531 79 86 0.0 0.0 0.00 0.00 0.00 84 1006.1
20260904013023 80 85 0.0 0.0 0.00 0.00 0.00 82 1005.9
20260904011538 81 86 0.0 0.0 0.00 0.00 0.00 81 1005.9
20260904010022 82 89 0.0 0.0 0.00 0.00 0.00 80 1005.7
20260904004524 82 88 0.0 0.0 0.00 0.00 0.00 79 1005.5
20260904003021 84 86 0.0 0.0 0.00 0.00 0.00 75 1005.5
20260904001519 85 79 0.0 0.0 0.00 0.00 0.00 72 1005.4
20260904000019 85 78 0.0 0.0 0.00 0.00 0.00 71 1005.3
20260903234518 86 123 0.0 0.0 0.00 0.00 0.00 70 1005.0
20260903233019 87 82 0.0 0.0 0.00 0.00 0.00 70 1004.9
20260903231517 87 79 0.0 0.0 0.00 0.00 0.00 70 1004.8
20260903230017 88 163 0.0 0.0 0.00 0.00 0.00 68 1004.8
20260903224526 88 120 0.0 0.0 0.00 0.00 0.00 68 1004.7
20260903223014 88 103 0.0 0.0 0.00 0.00 0.00 67 1004.6
20260903221511 89 82 0.0 0.0 0.00 0.00 0.00 67 1004.7
20260903220017 88 161 0.0 0.0 0.00 0.00 0.00 68 1004.6
20260903214505 85 131 0.0 0.0 0.00 0.00 0.00 74 1004.5
20260903213002 86 85 0.0 0.0 0.00 0.00 0.00 71 1004.4
20260903211558 85 80 0.0 0.0 0.00 0.00 0.00 75 1004.2
20260903210059 84 76 0.0 0.0 0.00 0.00 0.00 77 1004.3
20260903204551 84 74 0.0 0.0 0.00 0.00 0.00 74 1004.5
20260903203051 84 75 0.0 0.0 0.00 0.00 0.00 73 1004.3
20260903201550 84 112 0.0 0.0 0.00 0.00 0.00 71 1004.4
20260903200049 84 127 0.0 0.0 0.00 0.00 0.00 70 1005.3
20260903194552 84 81 0.0 0.0 0.00 0.00 0.00 69 1006.1
20260903193054 85 127 0.0 0.0 0.00 0.00 0.00 69 1005.6
20260903191547 85 90 0.0 0.0 0.00 0.00 0.00 66 1004.6
20260903190051 86 77 0.0 0.0 0.00 0.00 0.00 66 1004.8
20260903184543 86 82 0.0 0.0 0.00 0.00 0.00 64 1004.7
20260903183040 87 60 0.0 0.0 0.00 0.00 0.00 64 1004.9
20260903181538 85 92 0.0 0.0 0.00 0.00 0.00 67 1005.0
20260903180037 85 82 0.0 0.0 0.00 0.00 0.00 65 1005.0
20260903174532 86 140 0.0 0.0 0.00 0.00 0.00 64 1005.4
20260903173029 86 117 0.0 0.0 0.00 0.00 0.00 64 1005.8
20260903171526 85 84 0.0 0.0 0.00 0.00 0.00 65 1005.8
20260903170022 84 67 0.0 0.0 0.00 0.00 0.00 68 1005.9
20260903164519 84 71 0.0 0.0 0.00 0.00 0.00 67 1006.0
20260903163019 83 76 0.0 0.0 0.00 0.00 0.00 69 1006.1
20260903161511 82 80 0.0 0.0 0.00 0.00 0.00 70 1005.9
20260903160015 81 46 0.0 0.0 0.00 0.00 0.00 73 1005.8
20260903154507 79 87 0.0 0.0 0.00 0.00 0.00 76 1005.9
20260903153005 79 86 0.0 0.0 0.00 0.00 0.00 74 1005.9
20260903151504 80 76 0.0 0.0 0.00 0.00 0.00 74 1005.9
20260903150105 79 92 0.0 0.0 0.00 0.00 0.00 76 1005.8
20260903144558 79 85 0.0 0.0 0.00 0.00 0.00 75 1006.0
20260903143102 79 59 0.0 0.0 0.00 0.00 0.00 76 1006.0
20260903141552 78 34 0.0 0.0 0.00 0.00 0.00 78 1006.1
20260903140047 77 63 0.0 0.0 0.00 0.00 0.00 79 1006.4
20260903134551 76 60 0.0 0.0 0.00 0.00 0.00 82 1006.5
20260903133039 74 42 0.0 0.0 0.00 0.00 0.00 84 1006.6
20260903131535 73 45 0.0 0.0 0.00 0.00 0.00 85 1006.5
20260903130030 72 69 0.0 0.0 0.00 0.00 0.00 85 1006.8
20260903124526 71 69 0.0 0.0 0.00 0.00 0.00 87 1006.5
20260903123025 70 80 0.0 0.0 0.00 0.00 0.00 87 1006.4
20260903121526 69 45 0.0 0.0 0.00 0.00 0.00 88 1006.7
20260903120019 69 57 0.0 0.0 0.00 0.00 0.00 87 1006.8
20260903114521 69 51 0.0 0.0 0.00 0.00 0.00 86 1006.7
20260903113017 69 42 0.0 0.0 0.00 0.00 0.00 85 1006.6
20260903111517 69 74 0.0 0.0 0.00 0.00 0.00 85 1006.7
20260903110015 69 69 0.0 0.0 0.00 0.00 0.00 85 1006.6
20260903104514 69 57 0.0 0.0 0.00 0.00 0.00 84 1006.6
20260903103013 70 53 0.0 0.0 0.00 0.00 0.00 84 1006.7
20260903101510 70 60 0.0 0.0 0.00 0.00 0.00 83 1006.7
20260903100009 72 68 0.0 0.0 0.00 0.00 0.00 81 1006.6
20260903094507 74 360 0.0 0.0 0.00 0.00 0.00 76 1006.4
20260903093015 76 136 0.0 0.0 0.00 0.00 0.00 72 1006.2
20260903091506 76 360 0.0 0.0 0.00 0.00 0.00 71 1006.2
20260903090002 75 165 0.0 0.0 0.00 0.00 0.00 72 1005.9
20260903084601 74 159 0.0 0.0 0.00 0.00 0.00 72 1005.6
20260903083058 73 88 0.0 0.0 0.00 0.00 0.00 79 1006.4
20260903081557 75 86 0.0 0.0 0.00 0.00 0.00 79 1007.0
20260903080057 73 160 0.0 0.0 0.00 0.00 0.00 77 1007.1
20260903074553 72 110 0.0 0.0 0.00 0.00 0.00 77 1007.2
20260903073100 71 80 0.0 0.0 0.00 0.00 0.00 75 1007.1
20260903071549 72 161 0.0 0.0 0.00 0.00 0.00 75 1008.3
20260903070047 75 139 0.0 0.0 0.00 0.00 0.00 71 1008.5
20260903064544 74 62 0.0 0.0 0.00 0.00 0.00 74 1008.0
20260903063040 74 107 0.0 0.0 0.00 0.00 0.00 92 1008.1
20260903061536 72 84 0.0 0.0 0.00 0.00 0.00 94 1007.9
20260903060038 72 57 0.0 0.0 0.00 0.00 0.00 94 1007.2
20260903054533 72 55 0.0 0.0 0.00 0.00 0.00 94 1007.2
20260903053033 72 56 0.0 0.0 0.00 0.00 0.00 93 1007.3
20260903051530 72 56 0.0 0.0 0.00 0.00 0.00 93 1007.3
20260903050028 72 56 0.0 0.0 0.00 0.00 0.00 92 1007.6
20260903044526 72 56 0.0 0.0 0.00 0.00 0.00 92 1007.5
20260903043025 72 56 0.0 0.0 0.00 0.00 0.00 92 1007.5
20260903041525 73 56 0.0 0.0 0.00 0.00 0.00 91 1007.6
20260903040025 73 56 0.0 0.0 0.00 0.00 0.00 91 1007.7